Simultaneous Nadir Overpasses (SNOs) Predictions

Prediction of SNOs between GOES-16 and AQUA Satellite Orbit:

Table of predicted SNOs for the next 14.0 days since TLE Epoch: 7/26/2019
Index Date Time (GOES-16) GOES-16 Lat,Lon AQUA Lat,Lon Distance(km) Time Diff (sec)
1 07/27/2019 18:23:02 0.03, -75.21 0.80, -71.66 403.25 80
2 07/28/2019 06:44:18 -0.04, -75.21 0.30, -76.82 183.37 80
3 07/30/2019 06:32:07 -0.04, -75.23 -0.36, -73.87 155.00 80
4 07/30/2019 18:50:50 0.05, -75.24 -0.78, -79.05 434.05 80
5 08/01/2019 06:19:55 -0.05, -75.25 -0.96, -70.91 493.66 80
6 08/01/2019 18:38:39 0.05, -75.27 -0.12, -76.10 95.19 80
7 08/03/2019 18:29:07 0.05, -75.30 0.48, -73.14 244.45 80
8 08/04/2019 06:50:24 -0.06, -75.30 0.56, -78.31 341.75 80
9 08/06/2019 06:35:32 -0.06, -75.34 -0.05, -75.35 1.33 80
10 08/08/2019 06:23:21 -0.06, -75.39 -0.72, -72.40 339.94 80
11 08/08/2019 18:44:44 0.06, -75.40 -0.41, -77.59 248.36 80




NCC Satellite Simultaneous Nadir Overpasses (SNOs) Prediction Service
